This is the latest recevied weather packets stored in our database for station/object HG8LXL-2. If no packets are shown the sender has not sent any weather packets the latest 10 day(s).
| Time | Temp. | Humidity | Pressure | Rain* | Wind** | Luminosity | Snow |
|---|---|---|---|---|---|---|---|
| 1788251451 | 29.44° C | 32% | 1015.4 hPa | - | - | - | - |
| 1788251151 | 29.44° C | 32% | 1015.4 hPa | - | - | - | - |
| 1788250851 | 28.89° C | 33% | 1015.3 hPa | - | - | - | - |
| 1788250551 | 29.44° C | 34% | 1015.4 hPa | - | - | - | - |
| 1788250258 | 29.44° C | 33% | 1015.3 hPa | - | - | - | - |
| 1788249951 | 30° C | 32% | 1015.3 hPa | - | - | - | - |
| 1788249651 | 30° C | 34% | 1015.3 hPa | - | - | - | - |
| 1788249369 | 29.44° C | 34% | 1015.2 hPa | - | - | - | - |
| 1788249051 | 28.89° C | 38% | 1015.3 hPa | - | - | - | - |
| 1788248751 | 28.89° C | 37% | 1015.2 hPa | - | - | - | - |
| 1788248451 | 28.89° C | 39% | 1015.2 hPa | - | - | - | - |
| 1788248164 | 28.33° C | 40% | 1015.2 hPa | - | - | - | - |
| 1788247851 | 28.33° C | 40% | 1015.2 hPa | - | - | - | - |
| 1788247551 | 28.89° C | 41% | 1015.2 hPa | - | - | - | - |
| 1788247290 | 28.33° C | 41% | 1015.1 hPa | - | - | - | - |
| 1788246951 | 28.33° C | 41% | 1015 hPa | - | - | - | - |
| 1788246651 | 27.78° C | 43% | 1015.1 hPa | - | - | - | - |
| 1788246351 | 27.78° C | 43% | 1014.9 hPa | - | - | - | - |
| 1788246051 | 27.78° C | 44% | 1014.8 hPa | - | - | - | - |
| 1788245751 | 27.22° C | 45% | 1014.7 hPa | - | - | - | - |
| 1788245451 | 27.78° C | 46% | 1014.7 hPa | - | - | - | - |
| 1788245156 | 27.22° C | 45% | 1014.6 hPa | - | - | - | - |
| 1788244851 | 27.22° C | 46% | 1014.6 hPa | - | - | - | - |
| 1788244551 | 27.22° C | 46% | 1014.5 hPa | - | - | - | - |
| 1788244251 | 26.67° C | 47% | 1014.5 hPa | - | - | - | - |
* Rain since midnight (hover to see other rain measurements)
** Current wind speed in m/s (hover to see current wind gust speed)